Regional Weather Roundup
Issued by NWS Pendleton, OR

Home | Current Version | Previous Version | Text Only | Print | Product List | Glossary On
Versions: 1 2 3 4 5 6 7 8 9 10 11 12 13 14 15 16 17 18 19 20 21 22 23 24 25 26 27 28 29 30 31 32 33 34 35 36 37 38 39 40 41 42 43 44 45 46 47 48 49 50
000
ASUS46 KPDT 300110
RWRPDT
PENDLETON REGIONAL WEATHER ROUNDUP
NATIONAL WEATHER SERVICE PENDLETON OREGON
600 PM PDT FRI AUG 29 2014

NOTE: FAIR INDICATES FEW OR NO CLOUDS BELOW 12,000 FEET WITH NO
SIGNIFICANT WEATHER AND/OR OBSTRUCTIONS TO VISIBILITY.

# INDICATES UNOFFICIAL STATION AND DATA

WAZ520-300210-
EAST SLOPES OF WASHINGTON CASCADES

CITY            SKY/WX      TMP DP  RH  WIND    PRES   REMARKS
#CLE ELUM HS    N/A         63  46  54  W7      29.90S
#CLE ELUM 2NW   N/A         63  45  52  W6      N/A
#CLE ELUM LAKE  N/A         63  47  56  W3      29.85S
#CLIFFDEL 2NW   N/A         63  47  56  N5      N/A
#EASTON DOT     N/A         62  32  32  N5      N/A
#GLENWOOD       N/A         67  51  56  S7      29.85S
#NELSON         N/A         64  49  58  CALM    29.88S
#NELSON 3SW     N/A         61  47  60  CALM    30.06S
#NILE           N/A         66  47  50  W5      29.13R
#PEOH POINT     N/A         56  44  64  W5      N/A
#RONALD 2NW     N/A         64  47  54  W3      29.83F
#TEANAWAY 4NE   N/A         66  48  52  SW1     N/A
#TROUT LAKE 1NE N/A         67  50  54  W12     29.87F
$$

WAZ521-300210-
SIMCOE HIGHLANDS

CITY            SKY/WX      TMP DP  RH  WIND    PRES   REMARKS
#BICKLETON HS   N/A         71  32  24  W9      29.97S
#SATUS PASS DOT N/A         70  37  30  CALM    N/A
#CENTERVILLE 1SWN/A         68  50  53  W16     29.84R
#GOLDENDALE     N/A         72  49  44  W13     N/A
#GOLDENDALE 1NE N/A         70  42  36  SW7     N/A
#GOLDENDALE 1S  N/A         70  52  53  SW9     29.89R
#GOLDENDALE 5WNWN/A         70  50  49  W13     29.82S
#GOODNOE HILLS  N/A         74  52  46  W25G32  29.80S
#LYLE 6NE       N/A         68  53  59  SW10G24 29.83S
$$

WAZ026-300210-
KITTITAS VALLEY

CITY            SKY/WX      TMP DP  RH  WIND    PRES   REMARKS
ELLENSBURG AP   CLOUDY      68  46  45  NW21    29.91R
#ELLENSBURG CWU N/A         66  46  48  NW16    29.80S
#ELLENSBURG 3NE N/A         65  48  54  W10     29.91S
#ELLENSBURG     N/A         69  49  49  NW9     N/A
#ELLENSBURG 1E  N/A         66  43  43  NW1     N/A
#KITTITAS 3S    N/A         66  48  52  N8      29.81R
#THORP 6N       N/A         63  45  52  N22G32  29.87S
$$

WAZ027-300210-
YAKIMA VALLEY

CITY            SKY/WX      TMP DP  RH  WIND    PRES   REMARKS
SUNNYSIDE AP    CLOUDY      75  52  45  NW7     29.82R
YAKIMA-VAGABOND CLOUDY      73  46  38  N16     29.88R
#COWICHE 1N     N/A         68  49  51  NW6     30.06R
#DONALD 2NE     N/A         74  45  35  S2      30.17R
#GRANDVIEW      N/A         78  49  36  W8      29.79R
#MABTON         N/A         78  54  43  NW7     29.80S
#MOXEE 2E       N/A         72  35  26  NW5     29.80R
#NACHES 2SW     N/A         68  51  55  W5      29.89S
#TERRACE HTS    N/A         73  49  43  N3      29.77R
#TOPPENISH      N/A         74  52  46  N3      29.73R
#WAPATO 4NE     N/A         74  45  35  S2      30.17R
#WEST VALLEY    N/A         73  47  40  NW2     29.79R
#W YAKIMA       N/A         72  50  46  NE1     29.80R
#WHITE SWAN 5E  N/A         75  45  34  W10     29.81R
#WILEY CITY 3W  N/A         72  38  29  CALM    29.85S
$$

WAZ028-300210-
LOWER COLUMBIA BASIN...WASHINGTON

CITY            SKY/WX      TMP DP  RH  WIND    PRES   REMARKS
PASCO           CLOUDY      80  54  41  N14     29.79R
PROSSER AWOS    N/A         77  54  45  W12     29.84R
RICHLAND AWOS   CLOUDY      82  46  28  NW13G24 29.79R
#BASIN CITY 5SW N/A         76  52  43  W15G24  29.80R
#BENTON CITY    N/A         81  54  39  SW5     29.66S
#CONNELL 5N     N/A         79  49  35  W5      29.75R
#CONNELL 5NW    N/A         75  53  46  NW7     29.73R
#ELTOPIA        N/A         77  55  47  W3      29.73R
#ELTOPIA 6NW    N/A         75  53  46  W8      28.78R
#KENNEWICK 3S   N/A         82  52  35  NW2     29.76R
#PASCO-BROADMOORN/A         82  50  33  SW7     29.65
#PATERSON       N/A         82  46  28  W10     29.75S
#PROSSER DOT    N/A         84  49  30  W9      N/A
#PROSSER        N/A         79  49  35  NW5     29.77R
#SAGEMOOR 2W    N/A         75  55  50  NW7     29.62R
#TOUCHET 2S     N/A         84  46  27  W7      29.73S
#WEST PASCO     N/A         81  52  37  NW7     29.76R
$$

WAZ029-300210-
FOOTHILLS OF THE BLUES...WASHINGTON

CITY            SKY/WX      TMP DP  RH  WIND    PRES   REMARKS
WALLA WALLA AP  CLOUDY      85  38  19  W15     29.83S
#COLLEGE PLACE  N/A         87  42  21  SW3     29.79S
#DAYTON SCHOOL  N/A         81  37  21  W5      29.81F
#DELANEY DOT    N/A         86  38  18  SW7     N/A
#LOWDEN 2SE     N/A         82  49  32  W7      29.74S
#PLEASANT VIEW 1N/A         81  45  28  SW8     29.78F
#PRESCOTT       N/A         84  46  27  SW5     29.73F
#SUDBURY        N/A         84  N/A N/A W6      N/A
#WHITMAN COLLEGEN/A         84  43  24  NW3     29.80S
#WAITSBURG 8N   N/A         80  31  17  S8      29.74S
#WALLA WALLA 5E N/A         83  42  24  W7      N/A
#WALLA WALLA U  N/A         85  45  25  CALM    29.75S
#WHITMAN MISSIONN/A         84  44  25  W8      29.77S
$$

WAZ030-300210-
BLUE MOUNTAINS...WASHINGTON

CITY            SKY/WX      TMP DP  RH  WIND    PRES   REMARKS
$$

ORZ009-041-WAZ024-300210-
COLUMBIA RIVER GORGE

CITY            SKY/WX      TMP DP  RH  WIND    PRES   REMARKS
HOOD RIVER AP   CLOUDY      73  52  48  NW6     29.93R
THE DALLES AP   CLOUDY      75  50  41  NW20G31 29.87S
#ARLINGTON AIRPON/A         76  50  40  W20     N/A
#ARLINGTON HS   N/A         79  49  35  NW12    29.71R
#MARYHILL       N/A         74  49  41  W13     N/A
#MARYHILL 2W    N/A         73  52  48  SW5     N/A
#MOSIER 1S      N/A         71  42  35  NW12    29.94S
#MURDOCK        N/A         76  55  48  NW8G25  29.88S
#RUFUS DOT      N/A         78  54  43  N9      N/A

$$

ORZ510-300210-
NORTH CENTRAL OREGON

CITY            SKY/WX      TMP DP  RH  WIND    PRES   REMARKS
#CHENOWITH 1W   N/A         67  49  52  W28     N/A
#COW CYN RST AREN/A         72  46  39  W8      N/A
#DUFUR 9E       N/A         66  49  54  W21     29.90R
#GRASS VALLEY   N/A         66  47  50  SW2     N/A
#GRASS VALLEY 1SN/A         68  48  49  NW13    29.86F
#KENT DOT       N/A         68  44  42  NW18    N/A
#MAUPIN SCHOOL  N/A         76  52  43  W13     28.77R
#MORO SCHOOL    N/A         69  54  59  W22G32  29.92F
#SHANIKO 5WSW   N/A         67  46  47  NW16    N/A
#SHANIKO 4NW    N/A         65  47  52  N14     29.98S
#TYGH VALLEY 2NEN/A         75  50  41  N7      29.83R
#WAPANITIA AIRPON/A         70  50  49  NW8     29.86R
#WASCO DOT      N/A         73  52  48  W21     N/A
#WASCO 5NE      N/A         72  51  48  W10G25  29.83S
$$

ORZ511-300210-
CENTRAL OREGON

CITY            SKY/WX      TMP DP  RH  WIND    PRES   REMARKS
BEND AIRPORT    CLOUDY      73  32  22  NW16    29.97R
MADRAS AIRPORT  CLOUDY      75  50  41  N14     29.94S
REDMOND AIRPORT CLOUDY      74  42  32  NW18G24 29.93R
#BEND 6E        N/A         73  32  22  CALM    29.76R
#BEND 1SW       N/A         75  42  31  SW1     N/A
#BEND-AWBREY    N/A         75  39  27  CALM    29.80R
#BEND-KIM LN    N/A         76  41  28  NW5     29.93R
#CROOKED RVR RANN/A         76  43  31  N2      29.80R
#CULVER         N/A         76  42  30  N2      29.90R
#LAKE BILLY CHINN/A         75   7   7  SW5     29.95F
#POWELL BUTTE   N/A         72  46  39  N7      29.61S
#PRINEVILLE 3N  N/A         73  47  40  W10     29.76R
#WARM SPRINGS   N/A         77  53  43  W8      29.86S


ORZ509-300210-
EAST SLOPES OF OREGON CASCADES

CITY            SKY/WX      TMP DP  RH  WIND    PRES   REMARKS
#BLUE BOX PASS  N/A         57   4  11  SW2     N/A
#BLACK BUTTE RNCN/A         70  48  46  CALM    29.84R
#CAMP SHERMAN   N/A         73  44  35  CALM    29.89R
#LA PINE DOT    N/A         72  37  28  W7      N/A
#LA PINE 4NW    N/A         70  46  42  W2      29.87R
#LAVA BUTTE DOT N/A         69  43  39  S1      N/A
#SISTERS AIRPOR N/A         72  52  49  N6G26   29.95R
#SISTERS ODOT   N/A         73  N/A N/A SE3     N/A
#SISTERS 3N     N/A         72  43  35  CALM    N/A
#SUNRIVER       N/A         70  47  44  SW2     29.72S
#SUNRIVER AP    N/A         70  43  38  CALM    29.79R
#SUTTLE LK DOT  N/A         64  44  48  SE2     N/A
#TUMALO 3W      N/A         72  41  33  N12     29.68R
#WANOGA BUTTE D N/A         60  40  47  NW8     N/A

$$

ORZ044-300210-
LOWER COLUMBIA BASIN...OREGON

CITY            SKY/WX      TMP DP  RH  WIND    PRES   REMARKS
HERMISTON       CLOUDY      82  45  27  W17     29.80R
#BOARDMAN SCHOOLN/A         82  46  28  W2      29.78S
#BOARDMAN 3W    N/A         80  48  33  W15     29.50S
#BOARDMAN 8SW   N/A         78  53  42  W12     29.79R
#ECHO 8SW       N/A         81  47  30  W13     29.80R
#IONE SCHOOL    N/A         75  45  34  W8      29.86R
#IRRIGON 4NW    N/A         83  50  32  SW13    N/A
#UMATILLA SCHOOLN/A         84  61  46  W8      29.85R
#UMATILLA       N/A         83  49  31  SW8     29.76R
$$

ORZ507-300210-
NORTHERN FOOTHILLS OF THE BLUES

CITY            SKY/WX      TMP DP  RH  WIND    PRES   REMARKS
PENDLETON AIRPT CLOUDY      80  43  27  W16     29.84S
#ADAMS 3WNW     N/A         80  43  27  W10     29.78R
#ATHENA         N/A         80  40  24  W10     29.80R
#HELIX SCHOOL   N/A         80  41  25  NE7     29.78S
#HELIX 3N       N/A         79  39  24  W17     29.84R
#HOLDMAN 5SE    N/A         81  47  30  W13     29.84F
#HOLDMAN 6E     N/A         79  44  29  NE12    29.59S
#M-F GROVE ELEM N/A         84  36  18  W5      29.81S
#M-FREEWATER 5SEN/A         81  45  28  SW7     29.83S
#PENDLETON DNTN N/A         82  42  24  W2      29.78S
#PDT AQUATIC CTRN/A         82  43  25  W10     29.87S
#PDT SUNRIDGE   N/A         81  45  28  W8      29.84R
#PENDLETON 7NW  N/A         81  53  38  W15     31.42S
#PILOT ROCK     N/A         78  42  28  W7      29.89R
#TUTUILLA       N/A         82  47  29  W8      29.73S
#UMAPINE 2E     N/A         82  47  29  SW6     29.76S
#WESTON SCHOOL  N/A         79  33  19  N5      29.82R

$$

ORZ508-300210-
SOUTHERN FOOTHILLS OF THE BLUES

CITY            SKY/WX      TMP DP  RH  WIND    PRES   REMARKS
LEXINGTON       CLOUDY      75  43  32  W13     29.91R
#AJAX           N/A         68  43  40  NW13    29.88R
#CONDON SCHOOL  N/A         67  50  54  NW6     29.91R
#CONDON 5W      N/A         65  46  50  NW13    29.93S
#FOSSIL SCHOOL  N/A         72  50  46  N5      29.91R
#HEPPNER 4NE    N/A         69  46  44  W15     29.80R
#LEXINGTON 2SE  N/A         75  46  36  NW14    29.88R
#MIKKALO        N/A         72  41  33  W15G24  29.91S
#OLEX 4N        N/A         74  48  40  W18G26  29.85S
#RUGGS 5NE      N/A         69  46  44  W13     30.14R
#RUGGS 2SW      N/A         69  47  45  NW13    29.85R

$$

ORZ502-503-300210-
BLUE MOUNTAINS

CITY            SKY/WX      TMP DP  RH  WIND    PRES   REMARKS
MEACHAM         MOCLDY      71  43  36  VRB3    29.96R
#BATTLE MTN DOT N/A         68  51  55  N5      N/A
#HEPPNER 15SE   N/A         65  47  52  NW2     29.91R
#LADD CYN SMT   N/A         79  40  25  NW14    N/A
#LADD CREEK ODOTN/A         80  49  34  NW6     N/A
#LONG CREEK HS  N/A         76  41  28  N13     N/A
#N POWDER DOT   N/A         79  49  35  N15     N/A
#PIKES PEAK     N/A         71  38  30  SW17    27.99S
#TOLLGATE       N/A         64  42  45  W2      29.94F
#TOLLGATE 9W    N/A         75  45  34  NW7     N/A
#UKIAH          N/A         72  46  39  N13     29.84R
#WESTON 4E      N/A         73  40  30  W7      29.73S
$$

ORZ505-300210-
JOHN DAY BASIN

CITY            SKY/WX      TMP DP  RH  WIND    PRES   REMARKS
JOHN DAY        PTCLDY      83  35  18  N17     29.88S
#DAYVILLE SCHOOLN/A         85  34  16  N7      29.81S
#MONUMENT HS    N/A         78  46  32  N15     29.85R
#MT. VERNON 5SE N/A         80  39  23  E2      29.85S
#WINLOCK        N/A         72  49  44  CALM    29.99S
$$

ORZ506-300210-
OCHOCO AND JOHN DAY HIGHLANDS

CITY            SKY/WX      TMP DP  RH  WIND    PRES   REMARKS
#BUCK CREEK DOT N/A         83  47  28  NW14    N/A
#HORSE RIDGE DO N/A         73  29  20  NW12    N/A
#KEYES SMT DOT  N/A         73  37  27  NW13    N/A
#PAULINA SCHOOL N/A         81  39  22  NW6     29.91S
#PINE MTN OBS   N/A         61  32  33  N7      N/A
#PRAIRIE CITY   N/A         79  43  28  N1      29.65R
#SENECA 9NW     N/A         80  37  21  CALM    29.70F
$$

ORZ049-300210-
GRANDE RONDE VALLEY

CITY            SKY/WX      TMP DP  RH  WIND    PRES   REMARKS
LA GRANDE       MOCLDY      81  43  26  NW21G31 29.85R
#COVE           N/A         80  53  39  N8      29.79R
#COVE SCHOOL    N/A         80  49  34  NW5     29.85R
#COVE 6NW       N/A         80  47  31  NW12    29.79R
#ELGIN 3N       N/A         77  41  28  W3      29.60R
#ELGIN 1E       N/A         79  47  32  W1      N/A
#IMBLER SCHOOL  N/A         76  47  36  W13     29.84R
#ISLAND CITY 4N N/A         80  50  35  N6      29.69R
#LADD CYN DOT   N/A         80  49  34  NW9     N/A
#LA GRANDE ELEM N/A         77  47  35  W12     29.87R
#UNION 1S       N/A         82  48  31  NW7     29.64R
$$

ORZ050-300210-
WALLOWA COUNTY

CITY            SKY/WX      TMP DP  RH  WIND    PRES   REMARKS
#ENTERPRISE AP  N/A         78  37  23  W13     29.85S
#ENTERPRISE HS  N/A         78  46  32  NW9     29.89R
#IMNAHA SCHOOL  N/A         89  40  18  CALM    29.66F
#IMNAHA 10S     N/A         83  47  28  CALM    29.82F
#JOSEPH 3N      N/A         72  46  39  NW13    29.93S
#JOSEPH 3W      N/A         73  41  31  CALM    29.81S
#LOSTINE        N/A         78  47  34  W5      29.55R
#MT HOWARD 8000 N/A         58  36  44  NW2     30.19F
#PROMISE 1S     N/A         74  47  38  SE10    29.86R
#SHEEP RDG 7000 N/A         61  41  48  CALM    29.75F
#WALLOWA SCHOOL N/A         81  48  32  N1      30.63R



$$



USA.gov is the U.S. government's official web portal to all federal, state and local government web resources and services.